Time,TemperatureF,DewpointF,PressureIn,WindDirection,WindDirectionDegrees,WindSpeedMPH,WindSpeedGustMPH,Humidity,HourlyPrecipIn,Conditions,Clouds,dailyrainin,SolarRadiationWatts/m^2,SoftwareType,DateUTC
2013-05-04 00:01:00,31.0,30.0,-100.00,NNW,345,2.0,6.0,97,0.00,,,0.00,0.000000,,2013-05-04 06:01:00,
2013-05-04 00:11:00,31.0,30.0,-100.00,NNW,345,2.0,6.0,97,0.00,,,0.00,0.000000,,2013-05-04 06:11:00,
2013-05-04 00:21:00,31.0,30.0,-100.00,NNW,345,2.0,6.0,97,0.00,,,0.00,0.000000,,2013-05-04 06:21:00,
2013-05-04 00:32:00,31.0,30.0,-100.00,NNW,345,2.0,6.0,97,0.00,,,0.00,0.000000,,2013-05-04 06:32:00,
2013-05-04 00:40:00,31.0,31.0,-100.00,North,358,2.0,7.0,98,0.00,,,0.00,0.000000,,2013-05-04 06:40:00,
2013-05-04 01:01:00,31.0,31.0,-100.00,North,358,2.0,7.0,98,0.00,,,0.00,0.000000,,2013-05-04 07:01:00,
2013-05-04 01:11:00,31.0,31.0,-100.00,North,358,2.0,7.0,98,0.00,,,0.00,0.000000,,2013-05-04 07:11:00,
2013-05-04 01:21:00,31.0,31.0,-100.00,North,358,2.0,7.0,98,0.00,,,0.00,0.000000,,2013-05-04 07:21:00,
2013-05-04 01:31:00,31.0,31.0,-100.00,North,358,2.0,7.0,98,0.00,,,0.00,0.000000,,2013-05-04 07:31:00,
2013-05-04 01:40:00,31.0,31.0,-100.00,North,10,2.0,9.0,98,0.00,,,-99.99,0.000000,,2013-05-04 07:40:00,
2013-05-04 02:01:00,31.0,31.0,-100.00,North,10,2.0,9.0,98,0.00,,,-99.99,0.000000,,2013-05-04 08:01:00,
2013-05-04 02:11:00,31.0,31.0,-100.00,North,10,2.0,9.0,98,0.00,,,-99.99,0.000000,,2013-05-04 08:11:00,
2013-05-04 02:21:00,31.0,31.0,-100.00,North,10,2.0,9.0,98,0.00,,,-99.99,0.000000,,2013-05-04 08:21:00,
2013-05-04 02:31:00,31.0,31.0,-100.00,North,10,2.0,9.0,98,0.00,,,-99.99,0.000000,,2013-05-04 08:31:00,
2013-05-04 02:40:00,31.0,31.0,-100.00,North,6,2.0,8.0,98,0.00,,,0.00,0.000000,,2013-05-04 08:40:00,
2013-05-04 03:02:00,31.0,31.0,-100.00,North,6,2.0,8.0,98,0.00,,,0.00,0.000000,,2013-05-04 09:02:00,
2013-05-04 03:11:00,31.0,31.0,-100.00,North,6,2.0,8.0,98,0.00,,,0.00,0.000000,,2013-05-04 09:11:00,
2013-05-04 03:21:00,31.0,31.0,-100.00,North,6,2.0,8.0,98,0.00,,,0.00,0.000000,,2013-05-04 09:21:00,
2013-05-04 03:32:00,31.0,31.0,-100.00,North,6,2.0,8.0,98,0.00,,,0.00,0.000000,,2013-05-04 09:32:00,
2013-05-04 03:40:00,30.0,29.0,-100.00,NNW,348,2.0,8.0,98,0.00,,,-99.99,0.000000,,2013-05-04 09:40:00,
2013-05-04 04:02:00,30.0,29.0,-100.00,NNW,348,2.0,8.0,98,0.00,,,-99.99,0.000000,,2013-05-04 10:02:00,
2013-05-04 04:12:00,30.0,29.0,-100.00,NNW,348,2.0,8.0,98,0.00,,,-99.99,0.000000,,2013-05-04 10:12:00,
2013-05-04 04:22:00,30.0,29.0,-100.00,NNW,348,2.0,8.0,98,0.00,,,-99.99,0.000000,,2013-05-04 10:22:00,
2013-05-04 04:33:00,30.0,29.0,-100.00,NNW,348,2.0,8.0,98,0.00,,,-99.99,0.000000,,2013-05-04 10:33:00,
2013-05-04 04:40:00,30.0,29.0,-100.00,East,95,3.0,8.0,98,0.00,,,0.00,0.000000,,2013-05-04 10:40:00,
2013-05-04 05:02:00,30.0,29.0,-100.00,East,95,3.0,8.0,98,0.00,,,0.00,0.000000,,2013-05-04 11:02:00,
2013-05-04 05:11:00,30.0,29.0,-100.00,East,95,3.0,8.0,98,0.00,,,0.00,0.000000,,2013-05-04 11:11:00,
2013-05-04 05:21:00,30.0,29.0,-100.00,East,95,3.0,8.0,98,0.00,,,0.00,0.000000,,2013-05-04 11:21:00,
2013-05-04 05:32:00,30.0,29.0,-100.00,East,95,3.0,8.0,98,0.00,,,0.00,0.000000,,2013-05-04 11:32:00,
2013-05-04 05:40:00,29.0,29.0,-100.00,North,355,3.0,7.0,98,0.00,,,-99.99,0.000000,,2013-05-04 11:40:00,
2013-05-04 06:04:00,29.0,29.0,-100.00,North,355,3.0,7.0,98,0.00,,,-99.99,0.000000,,2013-05-04 12:04:00,
2013-05-04 06:13:00,29.0,29.0,-100.00,North,355,3.0,7.0,98,0.00,,,-99.99,0.000000,,2013-05-04 12:13:00,
2013-05-04 06:25:00,29.0,29.0,-100.00,North,355,3.0,7.0,98,0.00,,,-99.99,0.000000,,2013-05-04 12:25:00,
2013-05-04 06:33:00,29.0,29.0,-100.00,North,355,3.0,7.0,98,0.00,,,-99.99,0.000000,,2013-05-04 12:33:00,
2013-05-04 06:40:00,29.0,29.0,-100.00,North,1,2.0,8.0,98,0.00,,,0.00,0.000000,,2013-05-04 12:40:00,
2013-05-04 07:01:00,29.0,29.0,-100.00,North,1,2.0,8.0,98,0.00,,,0.00,0.000000,,2013-05-04 13:01:00,
2013-05-04 07:11:00,29.0,29.0,-100.00,North,1,2.0,8.0,98,0.00,,,0.00,0.000000,,2013-05-04 13:11:00,
2013-05-04 07:21:00,29.0,29.0,-100.00,North,1,2.0,8.0,98,0.00,,,0.00,0.000000,,2013-05-04 13:21:00,
2013-05-04 07:32:00,29.0,29.0,-100.00,North,1,2.0,8.0,98,0.00,,,0.00,0.000000,,2013-05-04 13:32:00,
2013-05-04 07:40:00,30.0,29.0,-100.00,North,5,3.0,8.0,98,0.00,,,-99.99,4.000000,,2013-05-04 13:40:00,
2013-05-04 08:02:00,30.0,29.0,-100.00,North,5,3.0,8.0,98,0.00,,,-99.99,4.000000,,2013-05-04 14:02:00,
2013-05-04 08:11:00,30.0,29.0,-100.00,North,5,3.0,8.0,98,0.00,,,-99.99,4.000000,,2013-05-04 14:11:00,
2013-05-04 08:21:00,30.0,29.0,-100.00,North,5,3.0,8.0,98,0.00,,,-99.99,4.000000,,2013-05-04 14:21:00,
2013-05-04 08:32:00,30.0,29.0,-100.00,North,5,3.0,8.0,98,0.00,,,-99.99,4.000000,,2013-05-04 14:32:00,
2013-05-04 08:40:00,30.0,29.0,-100.00,North,351,3.0,8.0,98,0.00,,,0.00,9.000000,,2013-05-04 14:40:00,
2013-05-04 09:02:00,30.0,29.0,-100.00,North,351,3.0,8.0,98,0.00,,,0.00,9.000000,,2013-05-04 15:02:00,
2013-05-04 09:11:00,30.0,29.0,-100.00,North,351,3.0,8.0,98,0.00,,,0.00,9.000000,,2013-05-04 15:11:00,
2013-05-04 09:21:00,30.0,29.0,-100.00,North,351,3.0,8.0,98,0.00,,,0.00,9.000000,,2013-05-04 15:21:00,
2013-05-04 09:33:00,30.0,29.0,-100.00,North,351,3.0,8.0,98,0.00,,,0.00,9.000000,,2013-05-04 15:33:00,
2013-05-04 09:40:00,31.0,30.0,-100.00,North,7,3.0,7.0,97,0.00,,,0.00,12.000000,,2013-05-04 15:40:00,
2013-05-04 10:03:00,31.0,30.0,-100.00,North,7,3.0,7.0,97,0.00,,,0.00,12.000000,,2013-05-04 16:03:00,
2013-05-04 10:12:00,31.0,30.0,-100.00,North,7,3.0,7.0,97,0.00,,,0.00,12.000000,,2013-05-04 16:12:00,
2013-05-04 10:22:00,31.0,30.0,-100.00,North,7,3.0,7.0,97,0.00,,,0.00,12.000000,,2013-05-04 16:22:00,
2013-05-04 10:33:00,31.0,30.0,-100.00,North,7,3.0,7.0,97,0.00,,,0.00,12.000000,,2013-05-04 16:33:00,
2013-05-04 10:40:00,33.0,32.0,-100.00,North,358,3.0,9.0,96,0.00,,,0.00,23.000000,,2013-05-04 16:40:00,
2013-05-04 11:02:00,33.0,32.0,-100.00,North,358,3.0,9.0,96,0.00,,,0.00,23.000000,,2013-05-04 17:02:00,
2013-05-04 11:12:00,33.0,32.0,-100.00,North,358,3.0,9.0,96,0.00,,,0.00,23.000000,,2013-05-04 17:12:00,
2013-05-04 11:22:00,33.0,32.0,-100.00,North,358,3.0,9.0,96,0.00,,,0.00,23.000000,,2013-05-04 17:22:00,
2013-05-04 11:32:00,33.0,32.0,-100.00,North,358,3.0,9.0,96,0.00,,,0.00,23.000000,,2013-05-04 17:32:00,
2013-05-04 11:40:00,32.0,30.0,-100.00,East,88,3.0,8.0,92,0.00,,,0.00,26.000000,,2013-05-04 17:40:00,
2013-05-04 12:01:00,32.0,30.0,-100.00,East,88,3.0,8.0,92,0.00,,,0.00,26.000000,,2013-05-04 18:01:00,
2013-05-04 12:12:00,32.0,30.0,-100.00,East,88,3.0,8.0,92,0.00,,,0.00,26.000000,,2013-05-04 18:12:00,
2013-05-04 12:21:00,32.0,30.0,-100.00,East,88,3.0,8.0,92,0.00,,,0.00,26.000000,,2013-05-04 18:21:00,
2013-05-04 12:32:00,32.0,30.0,-100.00,East,88,3.0,8.0,92,0.00,,,0.00,26.000000,,2013-05-04 18:32:00,
2013-05-04 12:40:00,33.0,30.0,-100.00,NNW,348,2.0,8.0,88,0.00,,,0.00,28.000000,,2013-05-04 18:40:00,
2013-05-04 13:01:00,33.0,30.0,-100.00,NNW,348,2.0,8.0,88,0.00,,,0.00,28.000000,,2013-05-04 19:01:00,
2013-05-04 13:11:00,33.0,30.0,-100.00,NNW,348,2.0,8.0,88,0.00,,,0.00,28.000000,,2013-05-04 19:11:00,
2013-05-04 13:21:00,33.0,30.0,-100.00,NNW,348,2.0,8.0,88,0.00,,,0.00,28.000000,,2013-05-04 19:21:00,
2013-05-04 13:31:00,33.0,30.0,-100.00,NNW,348,2.0,8.0,88,0.00,,,0.00,28.000000,,2013-05-04 19:31:00,
2013-05-04 13:40:00,36.0,32.0,-100.00,NNW,333,3.0,8.0,85,0.00,,,0.00,41.000000,,2013-05-04 19:40:00,
2013-05-04 14:02:00,36.0,32.0,-100.00,NNW,333,3.0,8.0,85,0.00,,,0.00,41.000000,,2013-05-04 20:02:00,
2013-05-04 14:11:00,36.0,32.0,-100.00,NNW,333,3.0,8.0,85,0.00,,,0.00,41.000000,,2013-05-04 20:11:00,
2013-05-04 14:21:00,36.0,32.0,-100.00,NNW,333,3.0,8.0,85,0.00,,,0.00,41.000000,,2013-05-04 20:21:00,
2013-05-04 14:31:00,36.0,32.0,-100.00,NNW,333,3.0,8.0,85,0.00,,,0.00,41.000000,,2013-05-04 20:31:00,
2013-05-04 14:40:00,34.0,31.0,-100.00,North,350,2.0,7.0,87,0.00,,,0.00,40.000000,,2013-05-04 20:40:00,
2013-05-04 15:02:00,34.0,31.0,-100.00,North,350,2.0,7.0,87,0.00,,,0.00,40.000000,,2013-05-04 21:02:00,
2013-05-04 15:11:00,34.0,31.0,-100.00,North,350,2.0,7.0,87,0.00,,,0.00,40.000000,,2013-05-04 21:11:00,
2013-05-04 15:22:00,34.0,31.0,-100.00,North,350,2.0,7.0,87,0.00,,,0.00,40.000000,,2013-05-04 21:22:00,
2013-05-04 15:33:00,34.0,31.0,-100.00,North,350,2.0,7.0,87,0.00,,,0.00,40.000000,,2013-05-04 21:33:00,
2013-05-04 15:40:00,37.0,33.0,-100.00,NNE,17,2.0,9.0,85,0.04,,,0.04,50.000000,,2013-05-04 21:40:00,
2013-05-04 16:03:00,37.0,33.0,-100.00,NNE,17,2.0,9.0,85,0.04,,,0.04,50.000000,,2013-05-04 22:03:00,
2013-05-04 16:12:00,37.0,33.0,-100.00,NNE,17,2.0,9.0,85,0.04,,,0.04,50.000000,,2013-05-04 22:12:00,
2013-05-04 16:22:00,37.0,33.0,-100.00,NNE,17,2.0,9.0,85,0.04,,,0.04,50.000000,,2013-05-04 22:22:00,
2013-05-04 16:32:00,37.0,33.0,-100.00,NNE,17,2.0,9.0,85,0.04,,,0.04,50.000000,,2013-05-04 22:32:00,
2013-05-04 16:40:00,34.0,32.0,-100.00,North,2,3.0,10.0,92,0.10,,,-99.99,28.000000,,2013-05-04 22:40:00,
2013-05-04 17:02:00,34.0,32.0,-100.00,North,2,3.0,10.0,92,0.10,,,-99.99,28.000000,,2013-05-04 23:02:00,
2013-05-04 17:11:00,34.0,32.0,-100.00,North,2,3.0,10.0,92,0.10,,,-99.99,28.000000,,2013-05-04 23:11:00,
2013-05-04 17:21:00,34.0,32.0,-100.00,North,2,3.0,10.0,92,0.10,,,-99.99,28.000000,,2013-05-04 23:21:00,
2013-05-04 17:32:00,34.0,32.0,-100.00,North,2,3.0,10.0,92,0.10,,,-99.99,28.000000,,2013-05-04 23:32:00,
2013-05-04 17:40:00,34.0,32.0,-100.00,North,4,3.0,11.0,94,0.01,,,-99.99,32.000000,,2013-05-04 23:40:00,
2013-05-04 18:01:00,34.0,32.0,-100.00,North,4,3.0,11.0,94,0.01,,,-99.99,32.000000,,2013-05-05 00:01:00,
2013-05-04 18:11:00,34.0,32.0,-100.00,North,4,3.0,11.0,94,0.01,,,-99.99,32.000000,,2013-05-05 00:11:00,
2013-05-04 18:21:00,34.0,32.0,-100.00,North,4,3.0,11.0,94,0.01,,,-99.99,32.000000,,2013-05-05 00:21:00,
2013-05-04 18:31:00,34.0,32.0,-100.00,North,4,3.0,11.0,94,0.01,,,-99.99,32.000000,,2013-05-05 00:31:00,
2013-05-04 18:40:00,33.0,32.0,-100.00,NNE,16,5.0,11.0,96,0.02,,,0.17,17.000000,,2013-05-05 00:40:00,
2013-05-04 19:01:00,33.0,32.0,-100.00,NNE,16,5.0,11.0,96,0.02,,,0.17,17.000000,,2013-05-05 01:01:00,
2013-05-04 19:11:00,33.0,32.0,-100.00,NNE,16,5.0,11.0,96,0.02,,,0.17,17.000000,,2013-05-05 01:11:00,
2013-05-04 19:21:00,33.0,32.0,-100.00,NNE,16,5.0,11.0,96,0.02,,,0.17,17.000000,,2013-05-05 01:21:00,
2013-05-04 19:32:00,33.0,32.0,-100.00,NNE,16,5.0,11.0,96,0.02,,,0.17,17.000000,,2013-05-05 01:32:00,
2013-05-04 19:40:00,33.0,32.0,-100.00,NNE,14,3.0,10.0,97,0.04,,,0.21,6.000000,,2013-05-05 01:40:00,
2013-05-04 20:02:00,33.0,32.0,-100.00,NNE,14,3.0,10.0,97,0.04,,,0.21,6.000000,,2013-05-05 02:02:00,
2013-05-04 20:11:00,33.0,32.0,-100.00,NNE,14,3.0,10.0,97,0.04,,,0.21,6.000000,,2013-05-05 02:11:00,
2013-05-04 20:21:00,33.0,32.0,-100.00,NNE,14,3.0,10.0,97,0.04,,,0.21,6.000000,,2013-05-05 02:21:00,
2013-05-04 20:31:00,33.0,32.0,-100.00,NNE,14,3.0,10.0,97,0.04,,,0.21,6.000000,,2013-05-05 02:31:00,
2013-05-04 20:40:00,32.0,32.0,-100.00,North,355,2.0,9.0,98,0.00,,,0.21,1.000000,,2013-05-05 02:40:00,
2013-05-04 21:01:00,32.0,32.0,-100.00,North,355,2.0,9.0,98,0.00,,,0.21,1.000000,,2013-05-05 03:01:00,
2013-05-04 21:11:00,32.0,32.0,-100.00,North,355,2.0,9.0,98,0.00,,,0.21,1.000000,,2013-05-05 03:11:00,
2013-05-04 21:21:00,32.0,32.0,-100.00,North,355,2.0,9.0,98,0.00,,,0.21,1.000000,,2013-05-05 03:21:00,
2013-05-04 21:32:00,32.0,32.0,-100.00,North,355,2.0,9.0,98,0.00,,,0.21,1.000000,,2013-05-05 03:32:00,
2013-05-04 21:40:00,32.0,32.0,-100.00,North,350,2.0,8.0,98,0.00,,,0.21,0.000000,,2013-05-05 03:40:00,
2013-05-04 22:02:00,32.0,32.0,-100.00,North,350,2.0,8.0,98,0.00,,,0.21,0.000000,,2013-05-05 04:02:00,
2013-05-04 22:12:00,32.0,32.0,-100.00,North,350,2.0,8.0,98,0.00,,,0.21,0.000000,,2013-05-05 04:12:00,
2013-05-04 22:22:00,32.0,32.0,-100.00,North,350,2.0,8.0,98,0.00,,,0.21,0.000000,,2013-05-05 04:22:00,
2013-05-04 22:32:00,32.0,32.0,-100.00,North,350,2.0,8.0,98,0.00,,,0.21,0.000000,,2013-05-05 04:32:00,
2013-05-04 22:40:00,32.0,32.0,-100.00,SE,141,2.0,6.0,98,0.00,,,0.21,0.000000,,2013-05-05 04:40:00,
2013-05-04 23:02:00,32.0,32.0,-100.00,SE,141,2.0,6.0,98,0.00,,,0.21,0.000000,,2013-05-05 05:02:00,
2013-05-04 23:12:00,32.0,32.0,-100.00,SE,141,2.0,6.0,98,0.00,,,0.21,0.000000,,2013-05-05 05:12:00,
2013-05-04 23:21:00,32.0,32.0,-100.00,SE,141,2.0,6.0,98,0.00,,,0.21,0.000000,,2013-05-05 05:21:00,
2013-05-04 23:31:00,32.0,32.0,-100.00,SE,141,2.0,6.0,98,0.00,,,0.21,0.000000,,2013-05-05 05:31:00,
2013-05-04 23:40:00,31.0,31.0,-100.00,North,3,2.0,7.0,98,0.00,,,0.21,0.000000,,2013-05-05 05:40:00,